GW0758 Weather Reports


time (UTC)temp
C
wind
direction
speed
KPH
gust
KPH
rain 1hr
cm
rain 24hr
cm
rain mn
cm
humidity
%
barometer
mb
20260503193044 15 275 16.1 25.7 0.00 0.00 0.00 67 1014.5
20260503191540 16 294 14.5 29.0 0.00 0.00 0.00 70 1014.5
20260503190041 15 265 8.0 20.9 0.00 0.00 0.00 71 1014.6
20260503184545 15 298 8.0 24.1 0.00 0.00 0.00 75 1014.7
20260503183041 15 239 16.1 29.0 0.00 0.00 0.00 73 1014.6
20260503181541 15 292 17.7 32.2 0.00 0.00 0.00 73 1014.6
20260503180046 14 243 12.9 24.1 0.00 0.00 0.00 74 1014.6
20260503174549 13 259 14.5 30.6 0.00 0.00 0.00 78 1014.6
20260503173051 13 239 8.0 32.2 0.00 0.00 0.00 84 1014.6
20260503171543 13 219 12.9 27.4 0.00 0.00 0.00 81 1014.5
20260503081543 12 280 9.7 19.3 0.00 0.00 0.00 82 1013.2
20260503071549 12 265 8.0 19.3 0.00 0.00 0.00 83 1013.3
20260503060107 12 279 8.0 24.1 0.00 0.00 0.00 83 1013.5
20260503054605 12 277 9.7 22.5 0.00 0.00 0.00 83 1013.7
20260503053040 12 246 11.3 20.9 0.00 0.00 0.00 83 1013.7
20260503051539 12 284 9.7 22.5 0.00 0.00 0.00 82 1013.9
20260503050046 12 273 8.0 20.9 0.00 0.00 0.00 82 1013.7
20260503044545 12 300 8.0 25.7 0.00 0.00 0.00 82 1013.7
20260503043048 12 294 11.3 25.7 0.00 0.00 0.00 82 1013.6
20260503041543 12 250 14.5 25.7 0.00 0.00 0.00 82 1013.4
20260503040053 12 248 14.5 24.1 0.00 0.00 0.00 82 1013.4
20260503034549 12 275 17.7 29.0 0.00 0.00 0.00 81 1013.4
20260503033049 12 279 17.7 33.8 0.00 0.00 0.00 82 1013.3
20260503031544 12 281 17.7 29.0 0.00 0.00 0.00 82 1013.2
20260503030041 12 292 14.5 30.6 0.00 0.00 0.00 82 1012.9
20260503024550 12 288 17.7 27.4 0.00 0.00 0.00 81 1012.9
20260503023055 12 302 12.9 27.4 0.00 0.00 0.00 80 1012.8
20260503021550 12 314 12.9 25.7 0.00 0.00 0.00 80 1012.9
20260503020049 13 269 19.3 32.2 0.00 0.00 0.00 79 1013.0
20260503014544 13 307 19.3 32.2 0.00 0.00 0.00 77 1012.9
20260503013041 13 306 14.5 32.2 0.00 0.00 0.00 77 1013.1
20260503011546 13 325 14.5 29.0 0.00 0.00 0.00 76 1013.1
20260503010045 13 284 14.5 32.2 0.00 0.00 0.00 76 1013.2
20260503004557 13 255 14.5 29.0 0.00 0.00 0.00 75 1013.2
20260503003100 14 268 16.1 27.4 0.00 0.00 0.00 72 1013.3
20260503001601 14 234 20.9 32.2 0.00 0.00 0.00 72 1013.3
20260503000041 15 288 16.1 30.6 0.00 0.00 0.00 73 1013.3
20260502234539 15 304 14.5 30.6 0.00 0.00 0.00 71 1013.4
20260502233048 15 292 19.3 29.0 0.00 0.00 0.00 71 1013.6
20260502231545 15 257 19.3 40.2 0.00 0.00 0.00 71 1013.7
20260502230045 15 301 16.1 37.0 0.00 0.00 0.00 72 1013.9
20260502224541 15 250 16.1 38.6 0.00 0.00 0.00 71 1014.0
20260502223048 15 233 14.5 32.2 0.00 0.00 0.00 73 1014.3
20260502221540 15 300 22.5 43.5 0.00 0.00 0.00 72 1014.4
20260502220038 15 250 17.7 43.5 0.00 0.00 0.00 71 1014.5
20260502214544 15 286 16.1 32.2 0.00 0.00 0.00 72 1014.6
20260502213058 14 267 19.3 35.4 0.00 0.00 0.00 73 1014.6
20260502211543 14 310 16.1 29.0 0.00 0.00 0.00 75 1014.9
20260502210042 13 344 16.1 35.4 0.00 0.00 0.00 77 1015.2
20260502204542 13 255 14.5 30.6 0.00 0.00 0.00 77 1015.3
20260502203043 13 236 14.5 29.0 0.00 0.00 0.00 78 1015.5
20260502201543 13 292 16.1 27.4 0.00 0.00 0.00 79 1015.6
20260502200104 13 229 9.7 29.0 0.00 0.00 0.00 81 1015.7
20260502194602 13 178 9.7 30.6 0.00 0.00 0.00 82 1015.6